Location: Cruquius
(52.3348°N, 4.6319°E)
Time: 19:25:47
(UTC+00:00)

COSMOS 2455 - Pass Details

Date: 12 May 2021
Orbit: 902 x 908 km, 67.1° (Epoch: 21 June)

Event Time Altitude Azimuth Distance (km) Brightness Sun altitude
Rises 22:52:03 0° 318° (NW) 3,544 7.0 -18.6°
Reaches altitude 10° 22:54:50 10° 328° (NNW) 2,601 6.3 -18.7°
Maximum altitude 23:00:15 33° 31° (NNE) 1,478 4.4 -18.8°
Drops below altitude 10° 23:05:40 10° 95° (E) 2,594 5.1 -18.9°
Sets 23:08:26 0° 105° (ESE) 3,533 5.7 -19.0°
